Precipitable_Water
0.68 0.69 0.70 0.71 0.72 0.73 0.75 0.79 0.81 0.86 0.87 0.88 0.87 0.87 0.87 0.85 0.83 0.83 0.86 0.85 0.88 0.89 0.89 0.89 0.90 0.90 0.89 0.88 0.88 0.88 0.89 0.89 0.91 0.92 0.91 0.89 0.88 0.87 0.88 0.89 0.85 0.82 0.81 0.80 0.81 0.80 0.79 0.77 0.75 0.75 0.69 0.57 0.52 0.48 0.43 0.40 0.39 0.39 0.38 0.37 0.36 0.38 0.38 0.37 0.36 0.39 0.44 0.48 0.48 0.48 0.49 0.48 0.45 0.45 0.43 0.42 0.41 0.40 0.37 0.35 0.35 0.33 0.31 0.30 0.29
0.66 0.68 0.71 0.73 0.73 0.74 0.75 0.79 0.81 0.84 0.84 0.85 0.85 0.87 0.88 0.87 0.87 0.89 0.87 0.89 0.92 0.91 0.91 0.92 0.94 0.94 0.91 0.89 0.89 0.89 0.88 0.88 0.89 0.90 0.89 0.88 0.87 0.89 0.88 0.86 0.81 0.79 0.80 0.78 0.79 0.80 0.80 0.76 0.74 0.73 0.65 0.52 0.48 0.43 0.40 0.38 0.38 0.38 0.38 0.37 0.36 0.37 0.40 0.38 0.38 0.39 0.41 0.48 0.48 0.49 0.48 0.48 0.43 0.47 0.43 0.41 0.40 0.39 0.35 0.34 0.34 0.33 0.31 0.30 0.28
0.60 0.64 0.67 0.70 0.73 0.77 0.79 0.79 0.80 0.80 0.81 0.82 0.82 0.85 0.87 0.89 0.91 0.89 0.89 0.90 0.92 0.93 0.92 0.94 0.95 0.95 0.94 0.92 0.91 0.89 0.88 0.87 0.87 0.87 0.88 0.88 0.87 0.88 0.87 0.83 0.79 0.79 0.79 0.79 0.81 0.82 0.81 0.79 0.75 0.73 0.63 0.46 0.42 0.39 0.38 0.37 0.39 0.38 0.38 0.37 0.37 0.38 0.40 0.40 0.40 0.40 0.42 0.45 0.48 0.46 0.47 0.46 0.44 0.44 0.45 0.43 0.41 0.38 0.35 0.33 0.33 0.32 0.31 0.30 0.28
0.51 0.54 0.57 0.60 0.64 0.69 0.73 0.78 0.80 0.81 0.79 0.79 0.79 0.81 0.84 0.85 0.87 0.86 0.87 0.89 0.89 0.92 0.95 0.95 0.95 0.95 0.93 0.92 0.91 0.89 0.88 0.88 0.87 0.88 0.89 0.91 0.90 0.89 0.88 0.84 0.81 0.82 0.83 0.81 0.82 0.81 0.79 0.75 0.71 0.70 0.59 0.42 0.39 0.38 0.38 0.38 0.39 0.39 0.38 0.39 0.38 0.39 0.40 0.41 0.42 0.42 0.43 0.44 0.47 0.46 0.47 0.45 0.46 0.46 0.45 0.43 0.40 0.37 0.35 0.34 0.33 0.31 0.31 0.30 0.28
0.47 0.48 0.50 0.52 0.56 0.58 0.61 0.65 0.68 0.72 0.74 0.76 0.77 0.79 0.80 0.82 0.84 0.84 0.85 0.86 0.88 0.91 0.94 0.96 0.95 0.94 0.91 0.90 0.90 0.88 0.88 0.88 0.87 0.89 0.92 0.95 0.95 0.94 0.91 0.86 0.86 0.86 0.84 0.84 0.84 0.82 0.79 0.74 0.71 0.68 0.53 0.39 0.37 0.37 0.38 0.39 0.41 0.40 0.39 0.40 0.40 0.40 0.41 0.42 0.43 0.44 0.43 0.43 0.45 0.47 0.46 0.46 0.47 0.45 0.44 0.41 0.39 0.37 0.35 0.33 0.32 0.30 0.29 0.29 0.28
0.47 0.47 0.49 0.49 0.52 0.55 0.58 0.61 0.63 0.65 0.68 0.71 0.74 0.76 0.79 0.81 0.82 0.84 0.86 0.85 0.88 0.90 0.91 0.93 0.93 0.91 0.91 0.92 0.92 0.91 0.91 0.90 0.90 0.92 0.94 0.96 0.98 0.98 0.94 0.89 0.90 0.87 0.86 0.88 0.86 0.82 0.75 0.71 0.71 0.66 0.46 0.37 0.36 0.38 0.39 0.40 0.41 0.41 0.41 0.41 0.42 0.42 0.42 0.44 0.45 0.45 0.45 0.45 0.45 0.45 0.46 0.44 0.44 0.43 0.43 0.42 0.38 0.34 0.33 0.32 0.32 0.31 0.29 0.26 0.26
0.45 0.45 0.47 0.48 0.49 0.52 0.56 0.58 0.62 0.64 0.67 0.69 0.73 0.74 0.76 0.78 0.80 0.80 0.84 0.85 0.85 0.85 0.88 0.90 0.92 0.93 0.93 0.94 0.93 0.93 0.92 0.92 0.92 0.93 0.94 0.94 1.00 1.02 0.94 0.85 0.86 0.89 0.91 0.90 0.87 0.78 0.71 0.71 0.70 0.57 0.41 0.37 0.37 0.38 0.40 0.41 0.42 0.42 0.41 0.41 0.43 0.43 0.43 0.44 0.46 0.46 0.46 0.45 0.45 0.46 0.45 0.46 0.44 0.41 0.43 0.42 0.39 0.36 0.32 0.29 0.27 0.29 0.29 0.27 0.24
0.47 0.46 0.46 0.45 0.46 0.48 0.51 0.54 0.56 0.59 0.62 0.65 0.68 0.70 0.73 0.75 0.78 0.81 0.83 0.82 0.82 0.84 0.85 0.87 0.90 0.93 0.93 0.93 0.93 0.93 0.92 0.91 0.92 0.92 0.91 0.95 1.07 1.07 0.92 0.86 0.92 0.94 0.94 0.92 0.84 0.72 0.70 0.70 0.64 0.49 0.40 0.38 0.38 0.38 0.39 0.41 0.43 0.42 0.43 0.43 0.43 0.43 0.43 0.45 0.46 0.47 0.46 0.46 0.45 0.44 0.45 0.43 0.44 0.43 0.42 0.40 0.36 0.35 0.33 0.30 0.27 0.26 0.25 0.26 0.26
0.46 0.46 0.45 0.44 0.44 0.46 0.48 0.50 0.52 0.53 0.55 0.57 0.59 0.61 0.64 0.67 0.70 0.73 0.77 0.80 0.82 0.82 0.83 0.86 0.86 0.86 0.87 0.87 0.87 0.89 0.89 0.90 0.91 0.89 0.89 0.98 1.06 1.01 0.82 0.88 0.95 0.94 0.90 0.85 0.77 0.71 0.69 0.68 0.56 0.44 0.40 0.39 0.38 0.38 0.39 0.41 0.43 0.43 0.44 0.44 0.43 0.43 0.44 0.46 0.47 0.47 0.47 0.47 0.46 0.46 0.44 0.43 0.42 0.41 0.39 0.37 0.34 0.32 0.32 0.31 0.29 0.28 0.27 0.25 0.25
0.44 0.43 0.42 0.42 0.44 0.46 0.47 0.48 0.48 0.50 0.50 0.51 0.53 0.55 0.56 0.59 0.61 0.62 0.64 0.67 0.71 0.75 0.80 0.85 0.88 0.87 0.84 0.81 0.82 0.85 0.87 0.89 0.91 0.92 0.93 1.01 1.02 0.89 0.91 1.01 1.02 0.97 0.91 0.80 0.76 0.74 0.68 0.62 0.49 0.42 0.40 0.39 0.39 0.40 0.41 0.43 0.44 0.43 0.43 0.43 0.43 0.44 0.45 0.46 0.47 0.48 0.47 0.47 0.45 0.44 0.43 0.42 0.41 0.40 0.38 0.37 0.36 0.34 0.32 0.30 0.28 0.27 0.27 0.24 0.24
0.41 0.40 0.40 0.42 0.44 0.45 0.45 0.45 0.47 0.47 0.49 0.50 0.53 0.55 0.57 0.60 0.63 0.65 0.68 0.70 0.72 0.74 0.75 0.74 0.77 0.80 0.84 0.84 0.80 0.83 0.86 0.91 0.91 0.90 1.03 1.09 1.03 0.95 0.99 1.01 0.97 0.90 0.85 0.83 0.78 0.75 0.67 0.56 0.45 0.41 0.41 0.41 0.41 0.42 0.43 0.44 0.45 0.45 0.45 0.44 0.44 0.44 0.44 0.46 0.47 0.48 0.48 0.47 0.45 0.45 0.43 0.41 0.41 0.40 0.38 0.37 0.36 0.33 0.31 0.30 0.28 0.27 0.25 0.23 0.21
0.38 0.38 0.39 0.41 0.41 0.41 0.42 0.43 0.43 0.45 0.47 0.48 0.50 0.52 0.55 0.56 0.57 0.59 0.61 0.63 0.66 0.69 0.70 0.73 0.77 0.81 0.84 0.82 0.82 0.85 0.87 0.91 0.91 0.94 1.04 1.08 0.98 0.89 0.93 0.95 0.92 0.92 0.88 0.85 0.78 0.72 0.65 0.53 0.44 0.42 0.42 0.42 0.42 0.44 0.45 0.45 0.45 0.45 0.45 0.45 0.45 0.46 0.48 0.48 0.47 0.49 0.48 0.46 0.45 0.44 0.43 0.41 0.40 0.40 0.38 0.36 0.34 0.33 0.31 0.29 0.28 0.26 0.25 0.23 0.22
0.37 0.37 0.38 0.39 0.40 0.41 0.41 0.41 0.41 0.42 0.44 0.46 0.48 0.50 0.52 0.53 0.55 0.57 0.59 0.63 0.65 0.66 0.69 0.71 0.72 0.75 0.78 0.80 0.82 0.86 0.85 0.87 0.94 0.97 0.98 0.93 0.88 0.93 1.01 1.02 0.98 0.94 0.91 0.84 0.75 0.67 0.61 0.52 0.44 0.43 0.43 0.44 0.44 0.44 0.44 0.45 0.45 0.45 0.45 0.45 0.46 0.47 0.49 0.50 0.51 0.49 0.48 0.46 0.44 0.43 0.42 0.41 0.40 0.39 0.38 0.36 0.35 0.32 0.30 0.28 0.28 0.27 0.25 0.24 0.23
0.37 0.37 0.38 0.39 0.39 0.40 0.40 0.40 0.40 0.41 0.43 0.44 0.46 0.47 0.48 0.49 0.52 0.55 0.57 0.59 0.61 0.62 0.65 0.67 0.70 0.71 0.75 0.78 0.79 0.83 0.87 0.94 1.01 1.03 1.00 0.92 0.94 1.05 1.12 1.05 0.98 0.96 0.91 0.85 0.75 0.65 0.58 0.51 0.44 0.43 0.44 0.45 0.44 0.44 0.44 0.44 0.44 0.44 0.44 0.45 0.46 0.48 0.49 0.51 0.51 0.50 0.49 0.46 0.44 0.42 0.43 0.43 0.41 0.40 0.39 0.38 0.34 0.31 0.29 0.28 0.28 0.26 0.25 0.24 0.25
0.36 0.36 0.37 0.38 0.39 0.40 0.40 0.40 0.40 0.41 0.43 0.43 0.44 0.45 0.47 0.49 0.51 0.54 0.56 0.57 0.59 0.61 0.63 0.64 0.68 0.72 0.73 0.75 0.79 0.82 0.83 0.89 0.94 0.98 0.95 0.91 0.96 0.99 0.97 0.98 0.97 0.94 0.90 0.85 0.75 0.64 0.58 0.50 0.45 0.42 0.42 0.43 0.43 0.43 0.42 0.42 0.42 0.43 0.43 0.44 0.45 0.47 0.49 0.50 0.49 0.48 0.47 0.46 0.45 0.44 0.45 0.45 0.43 0.41 0.39 0.37 0.34 0.33 0.31 0.30 0.29 0.28 0.27 0.26 0.25
0.36 0.37 0.36 0.38 0.39 0.40 0.40 0.40 0.41 0.42 0.43 0.44 0.45 0.46 0.48 0.50 0.51 0.53 0.55 0.56 0.58 0.61 0.63 0.65 0.66 0.69 0.72 0.74 0.76 0.82 0.86 0.90 0.91 0.89 0.89 0.92 0.95 0.95 0.96 0.94 0.93 0.93 0.88 0.78 0.70 0.63 0.56 0.49 0.44 0.42 0.42 0.41 0.42 0.42 0.41 0.42 0.42 0.41 0.41 0.43 0.45 0.47 0.48 0.49 0.49 0.48 0.47 0.47 0.47 0.46 0.46 0.45 0.44 0.41 0.38 0.36 0.35 0.34 0.33 0.31 0.30 0.28 0.26 0.24 0.23
0.36 0.36 0.37 0.38 0.40 0.41 0.41 0.41 0.42 0.42 0.44 0.44 0.45 0.47 0.48 0.48 0.50 0.53 0.53 0.55 0.56 0.58 0.61 0.64 0.67 0.68 0.70 0.73 0.74 0.76 0.83 0.90 0.92 0.91 0.90 0.94 0.96 0.96 0.96 0.94 0.92 0.88 0.82 0.74 0.68 0.62 0.55 0.48 0.44 0.41 0.41 0.40 0.41 0.41 0.42 0.42 0.41 0.40 0.41 0.42 0.44 0.45 0.45 0.46 0.46 0.46 0.47 0.48 0.48 0.48 0.47 0.46 0.44 0.41 0.39 0.38 0.36 0.34 0.32 0.29 0.27 0.27 0.25 0.23 0.22
0.38 0.37 0.38 0.39 0.41 0.42 0.43 0.43 0.43 0.44 0.44 0.44 0.46 0.48 0.50 0.52 0.54 0.56 0.56 0.57 0.58 0.61 0.64 0.65 0.68 0.69 0.69 0.71 0.75 0.77 0.80 0.86 0.88 0.87 0.88 0.94 0.96 0.95 0.94 0.91 0.87 0.83 0.78 0.73 0.66 0.59 0.53 0.48 0.44 0.41 0.40 0.40 0.41 0.42 0.42 0.41 0.40 0.40 0.41 0.42 0.42 0.42 0.42 0.43 0.45 0.47 0.50 0.50 0.49 0.48 0.46 0.45 0.41 0.39 0.38 0.37 0.35 0.34 0.31 0.27 0.27 0.27 0.25 0.24 0.23
0.41 0.39 0.39 0.41 0.43 0.44 0.45 0.45 0.46 0.46 0.46 0.48 0.49 0.50 0.52 0.54 0.56 0.59 0.59 0.60 0.61 0.64 0.66 0.66 0.68 0.71 0.72 0.73 0.74 0.75 0.76 0.79 0.82 0.86 0.90 0.91 0.91 0.90 0.88 0.85 0.80 0.76 0.74 0.71 0.65 0.58 0.51 0.47 0.44 0.42 0.42 0.41 0.42 0.42 0.42 0.41 0.39 0.39 0.40 0.40 0.39 0.38 0.39 0.41 0.44 0.45 0.47 0.47 0.46 0.45 0.44 0.42 0.39 0.37 0.36 0.35 0.34 0.33 0.32 0.30 0.29 0.27 0.25 0.25 0.25
0.43 0.45 0.45 0.45 0.45 0.46 0.47 0.47 0.48 0.49 0.50 0.51 0.53 0.54 0.56 0.56 0.57 0.58 0.59 0.61 0.62 0.65 0.67 0.68 0.68 0.68 0.70 0.72 0.74 0.75 0.78 0.83 0.87 0.89 0.89 0.89 0.89 0.87 0.83 0.77 0.75 0.74 0.70 0.66 0.62 0.57 0.52 0.49 0.48 0.46 0.43 0.42 0.42 0.41 0.40 0.39 0.38 0.38 0.38 0.36 0.35 0.35 0.40 0.42 0.44 0.46 0.47 0.47 0.45 0.44 0.41 0.40 0.38 0.36 0.34 0.33 0.33 0.32 0.31 0.30 0.29 0.28 0.27 0.26 0.25
0.42 0.43 0.45 0.46 0.46 0.47 0.49 0.49 0.50 0.51 0.53 0.54 0.56 0.56 0.58 0.58 0.59 0.60 0.60 0.62 0.63 0.64 0.65 0.66 0.67 0.67 0.69 0.71 0.73 0.74 0.75 0.76 0.81 0.83 0.83 0.83 0.82 0.79 0.76 0.75 0.73 0.71 0.68 0.62 0.57 0.54 0.51 0.49 0.47 0.45 0.42 0.40 0.39 0.38 0.38 0.37 0.36 0.36 0.35 0.34 0.35 0.38 0.41 0.42 0.44 0.47 0.47 0.45 0.45 0.43 0.40 0.39 0.37 0.36 0.34 0.33 0.32 0.31 0.30 0.31 0.30 0.30 0.28 0.27 0.26
0.42 0.43 0.43 0.45 0.46 0.48 0.49 0.51 0.52 0.53 0.54 0.55 0.55 0.56 0.58 0.60 0.60 0.61 0.61 0.61 0.62 0.62 0.64 0.66 0.67 0.67 0.69 0.71 0.72 0.73 0.75 0.76 0.77 0.78 0.79 0.78 0.77 0.75 0.73 0.72 0.70 0.68 0.64 0.59 0.54 0.50 0.48 0.45 0.42 0.41 0.39 0.37 0.36 0.36 0.36 0.36 0.35 0.35 0.35 0.36 0.38 0.40 0.41 0.43 0.46 0.47 0.46 0.45 0.44 0.41 0.39 0.38 0.37 0.36 0.35 0.33 0.32 0.30 0.30 0.31 0.31 0.30 0.30 0.29 0.27
0.43 0.43 0.44 0.45 0.46 0.47 0.49 0.51 0.52 0.54 0.54 0.56 0.56 0.56 0.58 0.58 0.59 0.59 0.59 0.59 0.60 0.60 0.62 0.64 0.64 0.65 0.65 0.68 0.72 0.75 0.78 0.80 0.80 0.79 0.79 0.78 0.76 0.74 0.72 0.69 0.69 0.66 0.62 0.57 0.54 0.49 0.45 0.42 0.40 0.38 0.37 0.36 0.35 0.36 0.37 0.37 0.36 0.36 0.36 0.38 0.39 0.41 0.43 0.44 0.45 0.45 0.45 0.45 0.43 0.41 0.39 0.38 0.38 0.38 0.36 0.33 0.31 0.30 0.30 0.30 0.30 0.30 0.30 0.30 0.30
0.43 0.43 0.44 0.45 0.46 0.48 0.49 0.51 0.53 0.54 0.55 0.55 0.55 0.55 0.55 0.55 0.56 0.57 0.58 0.58 0.58 0.58 0.58 0.59 0.59 0.59 0.60 0.62 0.65 0.69 0.72 0.74 0.75 0.75 0.75 0.74 0.72 0.70 0.68 0.67 0.66 0.63 0.59 0.54 0.50 0.45 0.42 0.40 0.38 0.37 0.37 0.36 0.36 0.37 0.38 0.38 0.37 0.37 0.37 0.38 0.40 0.42 0.43 0.44 0.45 0.45 0.45 0.45 0.43 0.41 0.39 0.39 0.40 0.39 0.36 0.34 0.32 0.31 0.30 0.30 0.30 0.30 0.30 0.30 0.30
0.42 0.43 0.44 0.46 0.46 0.48 0.49 0.50 0.51 0.52 0.53 0.53 0.51 0.51 0.52 0.53 0.53 0.54 0.55 0.55 0.55 0.55 0.56 0.57 0.58 0.58 0.59 0.60 0.62 0.64 0.67 0.69 0.70 0.71 0.70 0.69 0.68 0.67 0.66 0.64 0.62 0.60 0.55 0.52 0.48 0.45 0.42 0.41 0.39 0.38 0.38 0.37 0.37 0.38 0.39 0.39 0.38 0.37 0.38 0.39 0.41 0.43 0.44 0.45 0.45 0.45 0.45 0.44 0.43 0.40 0.40 0.40 0.40 0.39 0.38 0.35 0.33 0.32 0.30 0.29 0.30 0.31 0.31 0.31 0.30
0.41 0.42 0.44 0.45 0.46 0.47 0.47 0.48 0.49 0.50 0.50 0.51 0.51 0.51 0.51 0.51 0.50 0.51 0.52 0.52 0.53 0.52 0.52 0.53 0.53 0.54 0.55 0.56 0.58 0.60 0.62 0.63 0.64 0.65 0.65 0.65 0.65 0.64 0.63 0.62 0.59 0.56 0.52 0.49 0.47 0.44 0.43 0.41 0.40 0.39 0.39 0.39 0.38 0.38 0.38 0.39 0.40 0.39 0.38 0.39 0.41 0.42 0.44 0.45 0.46 0.47 0.46 0.44 0.42 0.40 0.40 0.41 0.40 0.41 0.39 0.36 0.34 0.31 0.30 0.29 0.30 0.31 0.31 0.30 0.28
0.39 0.41 0.41 0.43 0.44 0.45 0.45 0.45 0.46 0.47 0.48 0.49 0.49 0.49 0.50 0.49 0.48 0.48 0.48 0.47 0.46 0.46 0.46 0.46 0.47 0.48 0.48 0.50 0.52 0.54 0.55 0.56 0.57 0.59 0.60 0.61 0.60 0.60 0.60 0.58 0.56 0.54 0.51 0.48 0.46 0.44 0.43 0.41 0.39 0.38 0.38 0.38 0.38 0.38 0.38 0.39 0.39 0.39 0.38 0.39 0.40 0.42 0.45 0.47 0.48 0.47 0.45 0.43 0.42 0.41 0.41 0.41 0.41 0.41 0.39 0.37 0.35 0.34 0.33 0.33 0.32 0.32 0.31 0.30 0.28
0.39 0.40 0.41 0.42 0.43 0.44 0.45 0.45 0.46 0.46 0.46 0.47 0.46 0.47 0.47 0.47 0.45 0.45 0.45 0.45 0.45 0.45 0.46 0.47 0.47 0.48 0.49 0.50 0.50 0.51 0.51 0.53 0.54 0.55 0.56 0.56 0.55 0.56 0.55 0.54 0.52 0.51 0.48 0.47 0.45 0.44 0.42 0.40 0.39 0.38 0.38 0.38 0.39 0.39 0.39 0.39 0.38 0.37 0.36 0.36 0.37 0.41 0.46 0.49 0.49 0.48 0.46 0.45 0.43 0.42 0.41 0.41 0.40 0.40 0.39 0.38 0.36 0.35 0.35 0.34 0.33 0.32 0.31 0.29 0.26
0.40 0.41 0.41 0.42 0.42 0.44 0.44 0.44 0.44 0.44 0.44 0.44 0.45 0.45 0.43 0.43 0.44 0.46 0.48 0.49 0.49 0.47 0.47 0.47 0.48 0.49 0.49 0.48 0.48 0.48 0.49 0.50 0.53 0.55 0.55 0.55 0.54 0.53 0.52 0.51 0.50 0.49 0.48 0.46 0.44 0.43 0.41 0.39 0.37 0.37 0.36 0.36 0.37 0.37 0.36 0.35 0.34 0.34 0.33 0.33 0.36 0.40 0.45 0.48 0.48 0.48 0.47 0.44 0.41 0.41 0.41 0.40 0.40 0.40 0.39 0.38 0.37 0.37 0.36 0.35 0.33 0.31 0.29 0.27 0.25
0.40 0.40 0.40 0.40 0.40 0.41 0.41 0.42 0.42 0.42 0.41 0.40 0.41 0.42 0.45 0.46 0.46 0.45 0.45 0.47 0.48 0.48 0.48 0.47 0.48 0.48 0.47 0.48 0.49 0.48 0.48 0.50 0.53 0.53 0.53 0.54 0.54 0.53 0.53 0.52 0.51 0.50 0.49 0.47 0.45 0.42 0.40 0.38 0.38 0.37 0.36 0.36 0.35 0.34 0.33 0.33 0.32 0.31 0.32 0.33 0.35 0.39 0.44 0.48 0.49 0.48 0.46 0.44 0.42 0.41 0.41 0.40 0.40 0.40 0.39 0.38 0.37 0.37 0.35 0.33 0.30 0.29 0.27 0.26 0.24
0.38 0.38 0.38 0.38 0.39 0.40 0.40 0.39 0.40 0.40 0.41 0.42 0.42 0.41 0.41 0.43 0.45 0.46 0.46 0.46 0.46 0.46 0.47 0.47 0.48 0.48 0.47 0.46 0.47 0.48 0.48 0.49 0.49 0.50 0.50 0.51 0.51 0.51 0.51 0.51 0.51 0.50 0.50 0.48 0.45 0.43 0.41 0.40 0.39 0.39 0.38 0.37 0.36 0.35 0.34 0.33 0.32 0.30 0.30 0.31 0.32 0.37 0.44 0.48 0.49 0.49 0.47 0.44 0.43 0.42 0.41 0.40 0.40 0.39 0.38 0.37 0.36 0.34 0.32 0.30 0.28 0.27 0.25 0.24 0.23
0.37 0.37 0.38 0.38 0.38 0.38 0.38 0.39 0.40 0.41 0.41 0.41 0.41 0.41 0.40 0.39 0.41 0.44 0.45 0.45 0.45 0.45 0.45 0.45 0.45 0.46 0.46 0.46 0.45 0.46 0.47 0.48 0.48 0.48 0.49 0.49 0.49 0.50 0.50 0.50 0.51 0.51 0.50 0.48 0.44 0.43 0.43 0.41 0.40 0.39 0.38 0.36 0.35 0.35 0.33 0.32 0.30 0.29 0.29 0.29 0.30 0.35 0.42 0.47 0.49 0.48 0.46 0.44 0.42 0.41 0.41 0.39 0.38 0.37 0.36 0.35 0.33 0.31 0.28 0.26 0.25 0.24 0.23 0.23 0.23
0.38 0.38 0.38 0.38 0.38 0.38 0.39 0.40 0.41 0.41 0.40 0.40 0.41 0.41 0.40 0.40 0.39 0.39 0.42 0.44 0.44 0.44 0.44 0.44 0.44 0.44 0.45 0.45 0.45 0.45 0.45 0.46 0.46 0.47 0.47 0.48 0.48 0.48 0.48 0.49 0.49 0.49 0.48 0.46 0.44 0.43 0.42 0.41 0.39 0.38 0.38 0.36 0.36 0.35 0.33 0.32 0.31 0.31 0.30 0.30 0.31 0.33 0.39 0.45 0.48 0.47 0.46 0.44 0.43 0.42 0.40 0.38 0.36 0.34 0.33 0.32 0.30 0.27 0.26 0.25 0.24 0.23 0.23 0.22 0.21
0.39 0.39 0.38 0.39 0.39 0.40 0.40 0.41 0.41 0.41 0.42 0.42 0.42 0.41 0.41 0.41 0.40 0.40 0.39 0.39 0.40 0.42 0.43 0.44 0.43 0.43 0.43 0.44 0.44 0.44 0.44 0.44 0.45 0.45 0.46 0.46 0.47 0.47 0.48 0.48 0.48 0.48 0.47 0.45 0.44 0.42 0.42 0.41 0.40 0.40 0.39 0.38 0.37 0.36 0.35 0.34 0.33 0.32 0.32 0.32 0.31 0.32 0.35 0.41 0.45 0.46 0.45 0.44 0.42 0.40 0.38 0.35 0.33 0.31 0.30 0.29 0.28 0.26 0.25 0.24 0.23 0.22 0.22 0.21 0.21
0.40 0.41 0.41 0.42 0.41 0.41 0.42 0.42 0.42 0.42 0.42 0.42 0.42 0.42 0.42 0.42 0.41 0.41 0.40 0.39 0.39 0.39 0.40 0.41 0.43 0.43 0.42 0.43 0.43 0.44 0.44 0.45 0.46 0.46 0.46 0.47 0.47 0.47 0.48 0.47 0.47 0.48 0.49 0.48 0.47 0.46 0.44 0.43 0.42 0.41 0.40 0.39 0.38 0.37 0.35 0.34 0.34 0.33 0.32 0.32 0.32 0.32 0.33 0.35 0.39 0.43 0.43 0.42 0.40 0.37 0.34 0.32 0.30 0.29 0.28 0.27 0.26 0.25 0.24 0.23 0.23 0.22 0.21 0.21 0.21
0.41 0.41 0.41 0.42 0.42 0.42 0.42 0.43 0.43 0.43 0.43 0.43 0.43 0.43 0.43 0.42 0.42 0.41 0.41 0.41 0.40 0.40 0.40 0.40 0.41 0.42 0.43 0.43 0.44 0.44 0.44 0.44 0.45 0.45 0.45 0.46 0.46 0.47 0.45 0.44 0.44 0.45 0.46 0.47 0.46 0.45 0.44 0.43 0.42 0.41 0.40 0.38 0.38 0.36 0.36 0.35 0.34 0.34 0.33 0.33 0.32 0.32 0.32 0.32 0.33 0.35 0.37 0.37 0.34 0.31 0.29 0.28 0.28 0.27 0.27 0.26 0.25 0.25 0.24 0.24 0.23 0.22 0.22 0.21 0.22
0.42 0.41 0.42 0.43 0.43 0.43 0.44 0.44 0.44 0.44 0.44 0.44 0.43 0.43 0.43 0.42 0.42 0.42 0.41 0.40 0.40 0.39 0.39 0.40 0.40 0.41 0.42 0.43 0.43 0.43 0.44 0.44 0.44 0.44 0.44 0.44 0.44 0.44 0.43 0.42 0.42 0.43 0.44 0.45 0.45 0.45 0.44 0.43 0.43 0.41 0.40 0.38 0.37 0.36 0.36 0.35 0.34 0.34 0.34 0.33 0.32 0.32 0.31 0.31 0.32 0.33 0.32 0.30 0.29 0.28 0.27 0.27 0.27 0.27 0.26 0.25 0.25 0.24 0.24 0.24 0.23 0.22 0.22 0.22 0.22
0.44 0.43 0.43 0.43 0.44 0.44 0.44 0.44 0.44 0.44 0.44 0.44 0.43 0.43 0.42 0.42 0.41 0.41 0.40 0.39 0.39 0.39 0.39 0.39 0.40 0.40 0.40 0.41 0.43 0.42 0.43 0.44 0.44 0.43 0.43 0.43 0.43 0.43 0.43 0.42 0.42 0.42 0.42 0.43 0.43 0.43 0.43 0.43 0.42 0.41 0.40 0.39 0.38 0.37 0.36 0.35 0.35 0.34 0.33 0.33 0.32 0.32 0.32 0.32 0.31 0.31 0.30 0.29 0.28 0.28 0.27 0.27 0.27 0.26 0.25 0.25 0.24 0.24 0.24 0.24 0.23 0.22 0.22 0.21 0.21
0.45 0.45 0.45 0.45 0.45 0.45 0.45 0.45 0.44 0.44 0.44 0.44 0.43 0.43 0.42 0.41 0.40 0.39 0.39 0.39 0.39 0.39 0.39 0.40 0.41 0.41 0.40 0.40 0.40 0.41 0.41 0.40 0.40 0.39 0.40 0.40 0.41 0.42 0.42 0.41 0.41 0.41 0.40 0.40 0.40 0.40 0.40 0.40 0.40 0.40 0.40 0.39 0.38 0.37 0.36 0.35 0.34 0.34 0.33 0.32 0.32 0.32 0.31 0.30 0.30 0.30 0.29 0.29 0.28 0.27 0.27 0.26 0.26 0.26 0.25 0.24 0.24 0.23 0.23 0.22 0.21 0.20 0.19 0.19 0.20
0.45 0.45 0.46 0.46 0.45 0.45 0.45 0.45 0.45 0.45 0.44 0.44 0.43 0.43 0.42 0.41 0.40 0.40 0.40 0.39 0.39 0.40 0.41 0.40 0.40 0.39 0.39 0.40 0.39 0.39 0.38 0.38 0.38 0.38 0.38 0.39 0.39 0.39 0.39 0.39 0.38 0.38 0.38 0.38 0.38 0.38 0.37 0.37 0.38 0.37 0.37 0.37 0.37 0.36 0.35 0.35 0.34 0.33 0.33 0.32 0.31 0.30 0.30 0.30 0.29 0.29 0.28 0.27 0.26 0.26 0.25 0.24 0.24 0.23 0.22 0.22 0.21 0.21 0.21 0.20 0.20 0.19 0.19 0.19 0.20
0.46 0.46 0.46 0.46 0.46 0.46 0.45 0.45 0.45 0.45 0.44 0.44 0.43 0.42 0.41 0.41 0.41 0.41 0.41 0.41 0.40 0.40 0.39 0.39 0.39 0.39 0.40 0.39 0.40 0.40 0.38 0.37 0.37 0.37 0.36 0.35 0.35 0.35 0.35 0.35 0.35 0.35 0.35 0.35 0.34 0.34 0.34 0.34 0.34 0.35 0.35 0.35 0.35 0.34 0.34 0.33 0.33 0.32 0.31 0.31 0.30 0.29 0.28 0.28 0.27 0.26 0.25 0.24 0.23 0.22 0.21 0.21 0.20 0.20 0.20 0.20 0.20 0.20 0.20 0.20 0.20 0.19 0.19 0.19 0.20
0.46 0.46 0.46 0.46 0.46 0.46 0.46 0.46 0.45 0.45 0.45 0.44 0.43 0.42 0.41 0.41 0.41 0.41 0.41 0.40 0.40 0.40 0.40 0.40 0.39 0.39 0.40 0.40 0.39 0.39 0.37 0.36 0.35 0.34 0.33 0.33 0.32 0.32 0.32 0.32 0.32 0.32 0.32 0.32 0.32 0.31 0.31 0.31 0.31 0.31 0.31 0.30 0.30 0.29 0.29 0.28 0.28 0.27 0.26 0.25 0.25 0.24 0.23 0.23 0.22 0.22 0.21 0.20 0.20 0.20 0.19 0.20 0.19 0.19 0.19 0.19 0.19 0.19 0.19 0.19 0.19 0.18 0.18 0.19 0.19
0.47 0.47 0.47 0.47 0.47 0.47 0.46 0.46 0.46 0.45 0.44 0.43 0.42 0.42 0.42 0.42 0.41 0.41 0.41 0.41 0.41 0.40 0.40 0.39 0.38 0.38 0.37 0.38 0.37 0.36 0.35 0.33 0.32 0.31 0.30 0.30 0.29 0.29 0.29 0.29 0.29 0.30 0.30 0.30 0.30 0.30 0.30 0.29 0.29 0.29 0.28 0.28 0.27 0.27 0.26 0.25 0.25 0.24 0.24 0.23 0.22 0.22 0.21 0.21 0.21 0.20 0.20 0.20 0.19 0.19 0.19 0.19 0.19 0.19 0.19 0.19 0.18 0.18 0.18 0.18 0.18 0.18 0.18 0.18 0.18
0.47 0.47 0.47 0.47 0.47 0.46 0.46 0.46 0.45 0.44 0.44 0.43 0.43 0.42 0.42 0.41 0.41 0.41 0.41 0.41 0.40 0.39 0.38 0.37 0.36 0.35 0.34 0.33 0.32 0.31 0.31 0.30 0.29 0.28 0.27 0.27 0.27 0.26 0.27 0.27 0.27 0.27 0.28 0.28 0.28 0.28 0.28 0.27 0.27 0.27 0.27 0.27 0.26 0.26 0.25 0.25 0.25 0.24 0.23 0.22 0.22 0.21 0.21 0.20 0.20 0.20 0.20 0.20 0.20 0.19 0.19 0.19 0.18 0.18 0.18 0.17 0.17 0.17 0.17 0.17 0.17 0.17 0.17 0.17 0.17
0.48 0.48 0.47 0.47 0.46 0.46 0.45 0.45 0.44 0.44 0.43 0.42 0.42 0.41 0.42 0.42 0.41 0.41 0.40 0.39 0.38 0.36 0.35 0.34 0.33 0.32 0.31 0.30 0.30 0.29 0.28 0.27 0.26 0.26 0.26 0.26 0.26 0.26 0.26 0.25 0.25 0.25 0.25 0.25 0.25 0.25 0.25 0.25 0.25 0.24 0.24 0.24 0.25 0.24 0.24 0.24 0.24 0.23 0.23 0.22 0.21 0.21 0.20 0.20 0.21 0.21 0.20 0.20 0.19 0.18 0.18 0.18 0.17 0.17 0.17 0.16 0.16 0.16 0.16 0.16 0.16 0.16 0.16 0.16 0.17
0.49 0.48 0.48 0.47 0.45 0.44 0.44 0.43 0.43 0.42 0.42 0.42 0.41 0.41 0.40 0.40 0.39 0.37 0.36 0.35 0.34 0.33 0.33 0.32 0.31 0.31 0.30 0.29 0.28 0.27 0.26 0.26 0.26 0.25 0.25 0.25 0.25 0.25 0.25 0.25 0.24 0.24 0.24 0.24 0.23 0.23 0.23 0.23 0.22 0.22 0.22 0.22 0.22 0.22 0.22 0.23 0.23 0.23 0.22 0.22 0.21 0.21 0.21 0.21 0.20 0.20 0.19 0.19 0.18 0.17 0.17 0.17 0.16 0.16 0.16 0.16 0.15 0.15 0.15 0.15 0.15 0.15 0.15 0.16 0.16
0.49 0.47 0.46 0.45 0.44 0.43 0.43 0.42 0.42 0.41 0.41 0.40 0.39 0.38 0.37 0.36 0.35 0.35 0.34 0.34 0.33 0.32 0.32 0.31 0.30 0.29 0.28 0.27 0.26 0.26 0.26 0.25 0.25 0.25 0.25 0.25 0.25 0.25 0.24 0.24 0.24 0.23 0.23 0.23 0.23 0.22 0.22 0.22 0.22 0.22 0.21 0.21 0.21 0.21 0.21 0.21 0.21 0.21 0.21 0.21 0.20 0.20 0.20 0.20 0.19 0.19 0.18 0.18 0.17 0.17 0.16 0.15 0.15 0.15 0.15 0.15 0.14 0.14 0.14 0.15 0.15 0.15 0.15 0.15 0.15
0.46 0.45 0.44 0.44 0.43 0.42 0.41 0.40 0.40 0.39 0.38 0.37 0.37 0.36 0.35 0.35 0.34 0.34 0.33 0.33 0.32 0.31 0.30 0.29 0.28 0.27 0.26 0.26 0.26 0.26 0.26 0.26 0.25 0.25 0.25 0.25 0.24 0.24 0.24 0.23 0.23 0.23 0.22 0.22 0.22 0.22 0.22 0.21 0.21 0.21 0.21 0.20 0.20 0.20 0.20 0.19 0.19 0.19 0.19 0.19 0.19 0.19 0.18 0.18 0.18 0.17 0.17 0.17 0.16 0.16 0.15 0.14 0.14 0.14 0.14 0.14 0.13 0.14 0.14 0.14 0.14 0.14 0.14 0.14 0.14
0.44 0.43 0.42 0.41 0.40 0.39 0.39 0.38 0.38 0.37 0.37 0.36 0.36 0.35 0.34 0.34 0.33 0.32 0.32 0.31 0.30 0.30 0.29 0.28 0.27 0.27 0.26 0.26 0.26 0.26 0.26 0.25 0.25 0.24 0.24 0.24 0.23 0.23 0.23 0.22 0.22 0.22 0.21 0.21 0.21 0.21 0.20 0.20 0.20 0.19 0.19 0.19 0.18 0.18 0.18 0.17 0.17 0.17 0.17 0.17 0.17 0.17 0.17 0.17 0.17 0.16 0.16 0.16 0.15 0.15 0.14 0.14 0.13 0.13 0.13 0.13 0.13 0.13 0.14 0.14 0.14 0.14 0.14 0.14 0.13
0.41 0.41 0.40 0.39 0.39 0.38 0.38 0.38 0.37 0.36 0.36 0.35 0.34 0.33 0.33 0.32 0.31 0.30 0.30 0.30 0.29 0.29 0.28 0.28 0.28 0.27 0.26 0.26 0.25 0.25 0.24 0.24 0.23 0.23 0.23 0.23 0.22 0.22 0.22 0.21 0.21 0.21 0.20 0.20 0.20 0.19 0.19 0.19 0.18 0.18 0.17 0.17 0.17 0.16 0.16 0.16 0.16 0.16 0.16 0.16 0.16 0.16 0.16 0.16 0.16 0.16 0.15 0.15 0.15 0.14 0.14 0.13 0.13 0.13 0.13 0.13 0.13 0.13 0.13 0.14 0.14 0.14 0.14 0.13 0.13
0.40 0.39 0.39 0.38 0.38 0.37 0.37 0.36 0.35 0.34 0.34 0.33 0.33 0.32 0.31 0.31 0.31 0.30 0.30 0.30 0.29 0.29 0.29 0.28 0.27 0.26 0.26 0.25 0.25 0.24 0.24 0.23 0.23 0.22 0.22 0.22 0.21 0.21 0.20 0.20 0.20 0.19 0.19 0.18 0.18 0.18 0.18 0.17 0.17 0.17 0.16 0.16 0.16 0.16 0.16 0.16 0.16 0.16 0.16 0.16 0.16 0.16 0.15 0.15 0.15 0.15 0.15 0.15 0.14 0.14 0.13 0.13 0.12 0.12 0.12 0.12 0.13 0.13 0.13 0.14 0.13 0.13 0.13 0.13 0.13
Wind_Speed
33 34 35 36 36 37 37 38 38 38 39 39 39 40 40 40 40 39 39 39 39 39 39 39 39 39 39 40 40 40 40 40 40 40 40 40 40 39 39 39 38 39 39 39 39 39 39 39 38 38 37 36 35 34 34 33 33 32 32 31 31 31 30 30 30 30 31 31 32 32 32 33 34 34 34 35 36 36 37 38 37 37 38 38 38
32 33 34 35 36 37 37 37 38 38 39 39 40 40 40 40 40 40 40 40 40 40 40 39 40 40 40 41 41 41 41 41 40 40 40 40 40 40 40 40 40 39 39 39 39 39 39 39 39 38 37 36 35 34 34 33 33 32 32 31 31 31 30 30 30 30 30 31 32 32 33 33 34 34 34 35 35 36 37 37 37 37 37 38 38
31 32 33 34 35 36 37 37 37 38 39 39 40 40 40 40 40 40 40 40 40 40 40 40 40 40 41 42 42 42 42 41 41 41 41 41 40 40 40 40 40 40 39 39 39 40 40 40 40 39 37 36 35 35 34 33 33 32 32 31 31 31 30 30 30 30 30 31 31 32 33 34 34 34 34 35 35 36 37 37 37 37 37 38 38
30 31 31 33 33 34 35 36 37 38 38 39 39 39 40 40 40 40 40 40 40 40 40 40 40 41 41 42 42 43 42 41 41 41 41 41 41 40 40 40 40 40 40 40 40 40 40 40 40 39 37 36 35 34 34 33 33 32 32 31 31 30 30 30 31 31 30 31 31 32 33 34 34 34 34 35 35 36 36 36 37 37 37 38 38
29 29 30 31 31 32 33 33 34 35 36 37 38 38 39 39 40 40 40 40 41 40 40 40 40 41 41 42 42 42 42 41 41 41 41 41 41 40 39 40 39 39 39 40 40 40 40 40 39 37 36 35 35 34 33 33 32 32 31 31 30 30 30 30 30 30 30 31 31 32 33 33 34 34 35 35 36 36 36 36 36 37 37 38 38
28 28 28 29 30 30 31 32 32 33 34 35 36 37 37 38 39 39 40 40 40 40 40 40 41 41 41 42 42 42 41 41 41 41 41 41 41 39 39 39 39 38 38 39 39 39 39 38 37 36 35 35 34 33 33 33 32 32 31 31 30 30 30 30 30 30 30 31 32 33 33 34 34 34 35 35 35 36 35 36 36 37 37 37 37
27 27 27 28 28 29 30 31 31 32 33 34 34 35 36 37 37 38 39 39 40 40 40 40 40 40 40 40 40 41 41 40 41 41 41 42 41 38 38 39 39 38 37 37 38 38 38 37 36 35 35 35 34 33 33 32 32 31 31 30 30 30 30 30 30 30 30 31 32 33 33 34 34 34 35 35 35 35 35 36 36 36 37 36 36
25 26 26 27 27 28 29 30 31 31 32 33 33 34 35 35 36 36 37 37 38 38 39 39 39 39 39 39 40 40 40 40 40 41 41 42 40 38 39 39 39 37 37 37 37 37 36 36 35 35 35 34 34 33 33 32 31 31 31 30 30 30 30 30 29 30 31 32 32 33 34 34 34 35 35 35 35 35 35 35 36 36 36 36 36
25 25 26 26 27 28 28 29 29 30 31 31 32 32 33 34 34 35 36 36 37 37 38 38 38 37 38 38 38 38 39 40 39 40 40 40 38 38 39 39 38 37 37 37 37 36 36 35 35 34 34 33 33 33 32 32 31 31 31 30 30 30 29 29 29 30 31 32 33 33 34 34 34 35 35 35 35 35 35 35 36 36 36 36 37
24 25 25 26 26 26 27 27 28 28 29 30 30 31 31 32 33 33 34 35 35 35 36 36 36 36 36 36 36 37 38 38 39 39 39 38 37 37 37 36 36 37 37 37 36 36 35 34 34 33 33 32 32 32 31 31 31 30 30 30 30 30 29 29 30 31 32 33 33 34 34 34 35 35 35 35 35 35 35 35 36 36 37 37 37
24 25 25 25 25 25 26 26 26 27 27 28 29 29 30 30 31 32 32 33 33 33 34 34 35 35 35 35 34 35 35 36 36 37 36 36 36 36 35 34 35 35 35 36 35 35 34 33 32 31 31 31 31 31 31 31 30 30 30 30 30 29 29 29 30 31 32 33 34 34 34 35 35 35 35 35 34 34 35 35 36 36 36 36 38
24 25 25 25 25 25 25 25 25 25 26 26 27 27 28 29 30 30 31 31 32 32 32 33 32 32 33 33 33 33 33 33 34 34 34 35 35 35 34 33 33 33 33 34 33 32 31 31 30 30 30 31 31 30 30 30 30 30 30 29 29 29 29 30 31 32 33 33 34 34 35 35 35 35 35 34 34 34 35 35 36 36 36 37 38
24 24 24 24 24 24 25 25 25 25 26 26 26 27 28 28 29 29 30 30 30 31 31 31 31 31 31 32 32 32 32 32 31 31 32 32 33 33 33 32 32 32 32 32 31 30 30 30 30 30 30 30 30 30 30 30 30 29 29 29 29 29 30 31 32 33 33 34 34 35 35 35 35 35 34 34 34 35 35 36 36 36 37 38 39
24 24 24 24 24 24 24 25 25 25 25 26 26 27 28 28 29 29 29 29 29 30 30 30 30 30 30 30 30 30 30 31 31 31 31 30 30 30 31 31 32 32 32 32 31 30 29 29 29 29 30 30 30 30 30 30 29 29 29 29 29 30 31 32 33 33 33 34 35 35 35 35 35 35 34 34 34 35 35 36 36 36 37 38 40
24 24 24 24 24 24 24 25 25 25 25 25 26 27 28 28 28 28 28 28 28 29 29 29 29 29 29 29 29 29 29 29 29 29 30 29 29 29 30 32 32 32 32 32 30 29 29 29 29 29 30 30 30 30 30 29 29 29 29 29 30 31 32 33 33 33 34 34 35 35 35 35 35 35 35 34 35 35 36 36 36 36 38 39 40
25 25 25 25 25 25 25 25 25 25 25 26 26 27 27 27 27 27 27 27 27 27 27 27 27 27 27 27 27 27 28 28 28 28 29 29 28 29 30 31 31 31 31 30 29 28 28 28 29 29 29 29 29 29 29 29 29 29 30 30 31 32 33 33 33 33 34 35 35 35 35 35 35 35 35 35 35 36 36 36 36 37 38 39 40
26 26 25 25 25 25 26 26 26 26 27 27 27 27 27 27 26 26 25 25 25 26 26 26 26 27 27 27 27 27 27 28 28 28 28 28 27 28 28 28 28 28 28 28 27 27 27 27 28 28 28 29 29 29 30 30 30 30 30 31 32 32 33 33 33 34 34 35 35 35 35 36 36 36 36 36 36 36 36 36 37 38 39 40 40
28 27 26 26 26 26 26 26 27 27 27 27 27 27 27 26 26 25 25 25 25 25 26 26 26 26 26 27 27 27 27 27 26 27 27 27 26 26 26 26 26 26 26 26 26 26 27 27 27 28 28 29 30 30 30 30 31 31 32 32 32 33 33 33 34 34 35 35 35 35 36 37 37 36 36 37 37 36 36 37 38 38 39 40 40
29 28 27 26 26 26 26 27 27 27 27 27 27 27 26 26 25 24 24 24 25 25 25 25 25 25 25 25 25 25 25 25 25 25 25 25 25 25 25 25 25 25 26 26 26 26 27 27 28 29 29 30 30 30 31 31 32 32 32 33 33 34 34 34 34 35 35 36 36 36 37 37 37 37 37 37 37 37 37 38 39 39 39 40 41
27 27 27 27 27 27 26 27 27 27 27 27 26 26 25 24 24 23 23 23 23 24 24 23 23 23 23 23 24 24 24 24 24 24 24 24 24 24 25 25 25 26 26 26 26 27 27 28 28 29 29 30 30 31 31 32 32 33 33 33 34 34 34 35 35 36 36 36 37 37 38 38 38 37 37 38 38 38 38 39 39 39 40 41 41
25 25 26 26 27 27 27 27 27 27 26 26 25 24 24 23 23 23 22 22 22 22 22 22 22 22 22 22 23 23 23 23 23 23 23 23 24 25 25 26 26 26 26 27 27 27 28 28 29 29 30 31 31 32 32 33 33 33 34 34 34 34 35 35 36 36 36 37 37 38 39 39 38 38 38 38 38 39 39 39 39 40 41 41 42
24 24 24 25 26 26 26 26 26 26 25 25 24 23 23 23 22 22 22 22 21 21 22 22 22 22 22 23 23 23 23 24 24 24 24 24 25 26 27 27 27 27 28 28 29 29 30 30 30 31 31 32 32 33 33 34 34 34 34 35 35 35 35 36 36 36 37 38 38 39 39 40 39 39 39 39 39 40 40 40 40 41 42 43 43
23 23 23 24 25 26 25 25 25 24 24 23 23 22 22 22 22 22 22 22 22 22 22 22 22 22 23 23 23 24 24 24 24 25 26 26 27 27 28 28 29 29 29 30 30 31 31 31 32 32 33 33 33 34 34 34 34 35 35 35 36 36 36 37 37 37 38 39 39 40 40 40 40 39 40 40 40 40 40 40 41 42 43 44 45
23 23 23 23 24 25 24 24 24 24 23 23 22 21 21 21 22 22 22 22 22 23 23 23 23 23 23 23 24 24 24 24 25 26 27 28 28 28 29 30 30 30 31 31 31 32 32 33 33 33 34 34 34 35 35 35 35 35 36 36 37 36 37 37 38 38 39 40 40 41 41 41 40 40 40 41 41 41 41 42 42 43 44 45 46
23 23 23 23 23 23 23 23 23 23 23 22 21 21 21 21 21 22 22 22 22 23 23 23 23 23 23 24 24 25 25 25 26 27 28 29 29 29 30 30 31 31 31 31 32 32 33 33 34 34 35 35 35 35 35 35 36 36 36 37 37 37 37 38 38 39 40 40 41 41 41 41 41 41 41 41 41 42 42 43 44 44 45 45 46
23 23 22 22 22 22 22 22 22 22 22 21 21 21 21 21 21 21 21 22 22 22 22 23 23 23 24 24 24 25 26 26 27 28 28 29 29 30 30 31 31 31 32 32 32 33 33 33 34 35 35 35 36 36 36 36 36 37 37 37 38 38 38 39 40 40 41 41 41 42 42 42 41 41 41 42 42 43 44 44 45 45 46 46 46
23 22 22 21 20 20 20 20 20 20 20 20 20 20 20 20 20 21 21 21 22 22 22 23 23 24 24 25 25 26 26 27 27 28 28 29 30 30 31 31 31 32 32 33 33 33 33 34 34 35 35 36 36 36 36 37 37 37 38 38 38 39 39 40 41 41 41 42 42 43 42 42 42 42 42 42 43 44 45 45 46 46 46 46 46
22 22 21 21 20 20 19 19 19 19 19 19 19 19 20 20 20 21 21 22 22 22 23 23 24 24 25 25 25 26 26 27 28 28 29 29 30 30 31 32 32 33 33 34 34 34 34 34 35 35 36 36 36 37 37 37 37 38 38 39 39 40 40 41 41 42 42 42 43 43 43 43 43 43 42 42 43 44 45 46 46 46 46 47 47
23 22 22 21 21 20 20 20 20 19 19 18 19 19 19 20 20 20 21 21 21 22 22 23 23 24 24 25 25 26 27 27 28 28 29 29 30 31 31 32 33 33 34 34 35 35 36 36 36 36 37 37 38 38 38 38 39 39 40 40 41 41 41 42 42 42 43 43 44 44 44 43 44 44 44 44 44 44 45 46 46 47 47 47 48
23 23 23 22 21 21 20 20 20 20 19 19 19 19 19 20 20 20 20 20 21 21 22 22 23 24 24 25 25 26 27 28 28 29 29 30 30 31 32 32 33 33 34 35 36 37 37 37 38 38 39 39 39 40 40 40 40 41 41 42 42 42 42 42 43 43 44 45 45 45 45 44 45 45 45 45 45 46 46 47 47 48 48 48 48
24 24 24 23 22 22 21 21 21 21 21 20 20 20 19 20 20 20 21 21 21 21 22 22 23 24 24 25 26 27 27 28 28 29 30 30 31 32 32 33 33 34 34 35 36 37 38 38 39 39 40 40 41 41 41 42 42 43 43 43 43 43 43 43 44 44 45 46 46 46 46 45 46 46 46 46 47 47 48 48 49 48 49 49 49
25 24 24 24 24 23 23 22 22 22 22 21 21 21 20 20 20 21 21 21 22 22 22 23 23 24 25 25 26 27 28 28 29 29 30 30 31 32 32 33 33 34 34 35 36 37 37 38 39 39 40 41 41 42 42 43 44 44 44 44 45 45 45 45 45 45 46 46 46 46 46 47 47 47 47 48 48 49 49 49 49 49 49 49 49
26 25 25 25 25 24 24 24 24 23 23 23 23 22 22 21 21 22 22 22 23 23 23 24 25 25 26 27 27 28 28 29 29 30 30 31 32 32 33 34 34 34 35 35 36 37 37 38 38 39 40 41 41 42 43 44 44 45 46 46 46 46 46 46 46 46 47 47 47 47 48 48 48 49 49 49 50 50 50 50 50 50 50 50 50
27 27 26 26 26 26 25 25 25 25 25 25 24 24 24 23 23 23 23 23 24 25 25 26 26 27 28 28 29 29 29 30 30 31 32 32 33 33 34 34 35 35 36 36 37 37 37 38 38 39 40 41 41 43 44 44 45 46 46 47 47 47 47 47 47 47 48 48 48 49 49 49 49 50 50 50 50 51 51 51 50 50 50 50 50
29 28 28 27 27 27 27 27 26 26 26 26 26 26 25 25 25 25 25 25 25 26 27 27 28 29 29 30 30 31 31 31 32 32 33 34 34 34 35 35 36 37 37 38 38 38 38 39 39 39 40 41 42 43 44 45 46 46 46 47 47 47 48 48 49 49 49 49 50 50 50 50 51 51 51 51 51 51 51 51 51 51 51 51 51
30 29 29 29 29 29 28 28 28 28 28 28 27 27 27 26 26 26 27 27 27 27 28 29 29 30 31 31 32 32 33 33 34 34 34 35 35 36 36 37 37 38 39 39 39 39 39 39 40 40 41 42 42 43 44 45 45 46 47 47 48 48 49 50 50 50 50 50 51 51 51 51 51 51 52 52 52 52 52 52 52 51 51 51 50
31 31 30 30 30 30 30 29 29 29 29 29 29 28 28 28 28 28 28 28 28 29 29 30 30 31 32 33 33 34 34 35 35 35 36 36 37 37 38 38 39 39 40 40 40 40 40 40 41 41 42 42 43 43 44 45 46 46 47 48 48 49 49 50 50 50 51 51 51 51 51 51 52 52 52 52 52 52 52 52 52 51 51 51 51
32 32 32 32 31 31 31 30 30 30 30 30 30 30 29 29 29 29 29 29 30 30 30 31 32 32 33 34 34 35 35 36 36 36 36 37 37 38 38 39 39 40 41 41 41 41 41 41 42 42 42 43 43 44 45 46 46 47 47 48 48 49 49 49 50 50 50 51 51 51 51 51 51 52 52 52 52 52 52 52 52 52 51 51 51
33 33 33 32 32 32 32 31 31 31 31 31 31 31 30 30 30 30 31 31 31 31 32 32 33 34 34 35 35 35 35 36 36 37 37 37 38 38 39 40 40 41 41 42 42 42 42 42 42 43 43 43 44 44 45 46 46 46 47 47 48 48 49 49 49 50 50 51 51 51 51 51 51 51 51 52 52 52 52 52 52 51 51 51 51
33 33 33 33 33 33 33 32 32 32 32 32 31 31 31 31 31 32 32 32 32 33 33 33 34 35 35 36 36 36 36 36 37 37 37 37 38 39 40 41 41 42 42 42 42 43 43 43 43 43 43 44 44 44 45 45 46 46 47 47 48 49 49 49 50 50 51 51 51 51 51 51 51 51 52 52 52 53 52 52 52 51 51 51 51
34 34 34 34 34 34 34 33 33 33 32 32 32 32 32 32 33 33 33 33 33 34 34 34 35 36 36 36 37 37 37 37 37 37 37 38 39 39 40 41 42 42 42 43 43 43 43 43 43 44 44 44 44 45 45 46 46 47 48 48 49 49 50 50 50 51 51 52 52 52 52 52 52 52 53 53 53 53 53 52 52 51 51 51 50
34 34 35 35 35 35 34 34 34 34 33 33 33 33 33 34 34 34 34 34 35 35 35 35 36 37 37 37 37 37 38 38 38 38 38 39 40 40 41 42 42 42 42 43 43 43 43 43 44 44 44 44 45 45 46 47 47 48 48 49 49 50 51 51 51 52 52 53 53 53 53 53 53 53 53 53 53 53 53 52 52 51 51 51 50
35 35 35 35 35 35 35 35 35 35 34 34 34 34 35 35 35 35 35 36 36 36 36 37 37 37 38 38 38 38 38 39 39 39 39 40 41 42 42 42 42 42 43 43 43 43 44 44 44 44 45 45 46 47 47 48 48 49 49 50 51 51 52 52 53 53 54 54 55 55 55 55 54 54 54 53 53 53 52 52 52 51 50 50 49
36 36 36 36 36 36 36 36 36 35 35 35 35 36 36 36 36 36 36 37 37 37 38 38 38 39 39 39 39 39 39 40 40 40 41 42 42 43 43 43 43 43 43 44 44 44 44 44 45 45 46 46 47 48 48 49 49 50 51 51 52 53 53 54 54 55 55 56 56 56 56 55 55 54 54 53 53 53 52 52 51 50 50 49 48
37 37 37 36 36 36 36 36 36 36 36 36 36 36 37 37 37 37 37 37 38 38 38 39 39 40 40 40 40 40 41 41 41 42 43 43 44 44 44 44 45 45 45 45 45 45 46 46 47 47 48 48 49 49 50 51 51 52 52 53 54 55 55 56 56 56 57 57 57 57 56 56 55 55 54 53 53 52 52 51 50 49 48 47 46
37 37 37 37 37 37 37 37 37 37 37 37 37 37 37 37 37 38 38 38 39 39 39 40 40 41 41 41 42 42 42 42 43 44 44 44 45 45 45 45 46 46 46 46 47 47 48 48 49 49 50 50 51 51 52 53 53 54 55 55 56 57 57 57 57 57 57 57 57 57 57 56 56 55 54 53 52 52 51 50 49 48 47 46 45
37 37 37 37 37 37 37 37 37 37 37 37 37 37 38 38 38 38 39 39 40 40 41 41 42 42 43 43 43 43 43 44 45 45 46 46 46 46 47 47 47 47 47 48 48 49 49 50 51 51 52 52 53 54 54 55 56 56 57 58 58 58 59 59 58 58 58 58 58 57 57 56 56 55 54 52 51 50 50 49 48 47 45 44 43
37 37 37 37 37 37 37 37 37 37 38 38 38 38 38 39 39 40 40 41 41 42 42 42 43 44 44 44 44 44 45 46 46 47 47 47 48 48 48 48 49 49 49 50 50 51 51 52 53 53 54 55 55 56 57 57 58 58 59 59 59 60 60 60 59 59 59 59 58 57 57 56 55 54 53 51 50 49 48 47 46 45 43 42 42
37 37 37 37 37 37 37 38 38 38 38 39 39 39 39 40 40 41 42 42 42 43 43 44 44 45 45 45 46 46 47 47 47 48 48 49 49 49 50 50 50 50 51 51 52 53 53 54 55 56 56 57 57 58 59 59 60 60 60 61 61 61 61 60 60 60 59 58 58 57 56 55 53 52 51 49 48 47 46 45 44 42 41 40 39
37 37 37 37 37 38 38 38 39 39 39 40 40 40 41 41 42 42 43 43 44 44 44 45 45 46 46 47 47 47 48 48 48 49 49 50 50 51 51 51 51 52 53 53 54 55 55 56 57 57 58 59 59 60 61 61 61 62 62 62 62 61 61 60 60 59 58 57 56 55 54 53 51 50 48 47 45 44 43 42 41 40 39 38 37
37 37 37 38 38 38 39 39 39 40 40 40 41 41 42 42 43 43 44 44 45 45 46 46 46 47 47 48 48 48 48 49 49 50 50 51 51 52 52 52 53 54 54 55 56 56 57 58 58 59 59 60 61 61 62 62 62 62 62 62 61 61 60 59 59 58 57 55 54 53 52 50 49 47 46 44 42 41 40 39 38 37 36 35 34
Wind_Direction
263 263 263 263 264 265 266 266 266 266 267 267 267 268 268 269 269 270 270 271 272 272 272 272 272 271 272 272 272 272 272 270 269 269 270 269 270 270 271 271 271 272 272 272 271 271 272 272 273 275 274 271 270 270 270 272 273 275 276 277 279 282 285 288 291 294 297 299 301 303 305 306 308 310 311 313 315 317 319 320 320 320 321 322 323
265 265 265 265 265 265 266 267 267 267 268 268 269 269 270 270 270 270 271 271 272 272 272 272 272 272 272 272 273 273 272 271 270 269 269 268 269 269 270 271 271 271 271 271 271 270 271 272 273 274 272 269 268 269 269 270 272 274 275 276 279 281 284 287 290 293 296 298 300 302 304 306 308 310 311 313 314 316 318 319 319 320 321 322 322
267 267 267 266 266 266 266 267 267 267 268 269 270 270 271 271 271 271 271 271 272 272 272 272 272 272 272 272 273 273 272 272 270 269 269 268 268 269 270 271 271 270 270 271 271 271 272 273 273 272 270 268 267 268 269 270 272 273 274 276 278 281 284 287 290 292 294 297 299 302 304 306 308 309 311 312 314 316 317 318 318 319 320 321 322
269 269 269 268 268 268 268 267 267 267 268 269 270 271 272 272 273 273 272 272 272 272 272 272 272 272 273 272 272 273 272 272 270 270 269 268 268 269 271 271 271 270 269 270 272 273 273 274 272 270 268 266 265 267 268 269 271 272 274 276 278 281 284 286 289 291 293 296 299 301 304 306 307 309 311 312 313 315 316 317 318 318 319 320 321
270 270 270 270 270 270 270 270 269 269 269 270 271 271 272 273 273 273 273 273 273 272 272 272 272 272 272 272 272 273 273 271 270 269 269 268 268 269 271 271 270 270 270 271 273 274 274 274 271 267 265 264 264 266 267 269 271 272 273 275 278 280 283 286 288 291 293 295 298 301 304 305 307 309 310 311 312 314 315 316 317 317 318 320 320
271 272 272 271 272 272 272 272 272 272 272 272 272 272 273 273 273 273 273 273 273 273 273 273 273 272 272 272 273 273 273 271 270 269 269 269 268 269 272 272 270 270 271 272 273 275 274 272 269 265 262 262 263 265 267 268 269 271 272 275 277 280 282 285 287 290 293 296 298 301 303 305 306 308 309 310 312 313 314 315 315 316 318 319 319
271 272 272 272 272 273 273 273 273 274 274 274 274 274 274 274 274 274 274 274 274 274 273 273 273 272 272 272 272 273 272 271 270 269 269 268 267 269 272 272 270 270 272 273 275 276 274 271 267 263 261 262 263 265 266 267 269 270 272 274 276 279 281 284 287 290 293 296 298 300 302 304 306 307 308 310 312 313 313 314 315 316 318 318 319
271 271 271 272 272 273 273 274 274 275 275 275 275 275 275 276 276 276 275 275 275 275 274 274 273 273 273 273 273 272 272 271 271 270 270 269 267 270 273 272 270 270 272 275 276 275 273 269 266 263 262 262 264 265 266 267 268 269 271 274 276 278 280 284 287 290 293 295 298 300 302 304 305 307 308 310 311 312 313 313 314 315 317 318 319
271 271 272 272 273 274 274 275 276 276 276 277 277 277 277 277 277 276 276 276 276 275 275 274 273 273 273 274 274 272 272 272 271 271 270 269 268 271 273 270 269 270 272 274 275 274 272 268 264 262 261 262 263 265 266 266 267 269 271 273 275 277 280 284 287 290 293 295 297 299 301 303 304 306 308 309 310 311 311 312 313 315 316 317 318
272 272 273 274 275 276 276 277 277 278 278 278 279 279 279 279 279 278 277 277 276 276 275 274 273 273 273 274 274 273 273 274 272 271 270 268 269 273 272 269 268 270 272 273 273 273 270 266 263 261 260 261 263 264 265 265 267 270 271 273 275 277 281 284 287 290 292 294 296 298 300 302 304 306 307 308 309 310 310 311 313 314 316 317 318
274 275 275 276 277 277 278 278 279 280 280 281 281 281 281 281 280 280 279 278 278 277 276 275 274 274 273 274 275 274 275 275 273 272 269 267 269 273 270 267 268 270 272 272 271 270 268 264 261 259 259 261 262 263 264 265 268 270 271 273 275 278 282 284 287 290 292 294 296 298 300 301 303 306 307 307 308 309 310 311 312 314 316 317 318
274 275 276 277 277 278 279 280 280 282 283 283 283 283 283 282 281 281 279 279 279 278 277 277 276 276 275 275 275 276 276 275 274 272 269 266 269 271 269 268 270 271 273 274 272 269 265 261 259 259 259 260 261 263 264 265 267 269 271 273 276 279 283 285 288 290 292 294 296 298 299 301 303 305 306 306 307 308 309 311 312 314 315 316 317
272 273 274 275 277 278 280 281 283 284 284 285 285 285 285 283 283 282 280 280 279 279 278 278 277 277 276 276 276 276 276 276 274 273 271 269 270 270 266 266 270 271 273 275 272 267 262 259 258 259 259 260 261 263 264 265 267 269 271 274 277 280 282 286 288 291 292 294 296 298 300 302 304 305 305 305 306 308 309 310 312 313 314 315 316
270 271 272 275 277 279 282 283 284 285 285 285 286 285 285 284 284 283 282 281 280 279 278 278 277 277 276 276 277 277 278 277 274 271 271 271 271 269 265 264 267 270 272 274 272 265 261 259 258 259 259 260 261 263 264 266 268 270 272 275 278 281 283 286 288 291 293 295 296 298 300 302 304 305 305 305 306 307 308 310 311 313 314 315 316
269 271 272 275 278 281 283 284 284 285 285 285 286 286 286 285 284 284 283 281 280 279 278 278 277 277 276 276 277 278 279 279 275 272 271 270 269 268 266 266 268 271 274 274 270 264 261 260 259 259 259 260 262 263 264 266 268 271 273 276 279 282 285 287 289 291 293 295 296 298 300 302 303 304 304 305 306 306 308 309 311 313 313 314 316
269 271 272 275 278 281 283 283 283 283 284 285 286 286 286 286 285 284 283 281 279 278 278 278 278 278 277 278 279 280 280 279 276 274 273 271 268 268 268 268 269 272 273 272 268 264 262 261 260 260 260 261 262 263 265 267 269 272 274 277 280 283 285 287 289 291 293 294 296 298 299 301 303 303 303 304 305 306 307 309 311 312 313 314 315
268 270 272 274 278 280 281 281 281 282 283 284 285 285 285 285 284 283 282 281 280 279 279 280 280 279 279 280 280 281 281 279 277 275 273 270 269 269 269 269 270 272 272 270 267 264 262 261 261 261 262 262 263 263 265 268 271 273 275 278 281 283 285 287 288 290 291 293 295 296 299 301 302 302 303 304 304 305 307 309 310 311 312 313 314
266 268 271 274 277 279 279 280 281 282 283 284 284 284 284 284 283 282 282 282 283 283 282 282 282 281 281 281 281 281 281 280 277 274 272 269 268 269 270 272 273 273 272 269 267 265 264 263 262 263 263 263 263 264 266 269 272 274 276 279 281 283 285 287 288 290 291 293 294 296 299 301 302 302 303 303 303 304 306 307 309 310 311 312 313
264 266 270 274 276 278 279 280 281 282 282 283 283 284 284 283 281 280 280 282 284 285 285 284 284 283 282 282 282 281 281 280 277 275 272 269 268 270 272 273 274 273 272 269 267 266 266 264 264 265 265 265 265 266 269 272 274 276 278 280 281 282 285 287 288 290 291 293 294 297 299 301 302 302 302 302 303 304 305 307 308 309 310 310 312
265 268 271 274 276 277 278 279 280 281 282 282 282 282 282 280 279 278 279 281 283 284 285 285 285 284 283 282 281 280 280 280 278 275 273 271 271 273 274 274 274 273 272 270 268 267 267 267 267 267 267 267 268 269 271 273 276 278 279 280 282 283 285 287 288 289 291 293 294 296 299 300 301 301 301 301 302 303 304 306 307 308 309 310 311
267 270 273 274 274 275 277 278 279 280 280 281 281 280 279 277 277 277 278 280 282 283 284 285 284 285 284 283 282 280 280 279 278 275 272 271 272 274 275 275 274 273 272 271 269 268 268 269 269 268 268 269 270 271 272 274 276 278 279 281 282 284 286 287 287 289 291 293 294 296 298 300 301 301 300 300 301 302 304 305 305 306 308 309 310
267 270 271 272 272 273 275 277 278 278 279 279 278 277 276 275 276 276 277 278 279 279 280 281 282 283 284 284 283 281 280 279 277 274 272 272 274 275 275 276 275 273 272 271 271 270 270 270 270 269 268 269 270 272 272 273 276 278 279 281 282 283 285 287 288 289 291 293 294 296 297 299 300 300 300 300 300 301 302 304 304 305 306 307 308
266 268 268 269 269 271 273 274 275 276 277 277 276 275 275 275 276 277 277 277 277 277 277 278 279 280 281 282 283 282 280 279 278 276 275 275 276 276 276 276 275 274 272 271 271 271 271 271 271 270 269 270 271 272 273 274 276 278 278 280 281 283 285 287 288 289 290 292 294 295 296 298 299 299 299 299 299 300 301 302 303 304 306 306 307
264 265 265 266 267 269 271 271 272 274 275 274 273 273 273 275 276 277 277 278 278 277 277 278 278 279 279 280 281 281 281 280 279 279 278 277 277 277 277 276 276 275 274 273 273 273 273 273 272 271 270 271 272 273 274 275 277 277 278 279 281 283 285 286 287 288 289 292 293 295 296 297 298 298 298 298 298 299 300 301 302 304 305 306 306
261 261 261 263 265 267 268 269 270 272 272 271 271 271 272 274 275 276 277 278 278 278 278 278 278 278 279 280 280 280 280 280 281 281 280 279 279 278 277 277 276 276 275 274 274 274 274 274 273 273 273 273 273 274 275 276 277 278 278 280 282 283 285 286 286 287 289 291 293 294 295 297 297 298 298 297 297 298 299 300 302 303 304 305 306
257 258 259 261 263 264 265 267 269 269 270 270 270 271 272 273 275 276 277 278 279 279 279 279 279 279 280 280 280 281 281 281 282 282 281 280 279 279 278 277 276 276 275 275 274 274 274 274 274 274 275 275 275 276 277 277 278 278 279 281 283 284 285 285 286 288 289 291 292 294 295 296 296 297 297 297 297 297 299 300 301 302 303 305 306
256 256 257 259 260 261 261 263 266 268 269 270 270 271 272 273 274 275 276 277 279 280 280 280 280 281 281 281 281 282 282 282 283 283 282 282 281 281 280 279 278 277 276 275 275 275 275 275 275 276 276 276 276 277 278 278 279 279 280 282 283 284 284 286 287 288 289 290 292 294 295 296 296 296 296 297 297 298 298 299 300 301 302 304 305
253 253 254 256 257 258 259 260 263 267 269 269 270 271 272 273 274 275 276 277 278 278 279 279 279 280 280 280 281 282 282 282 283 283 283 283 283 282 282 281 280 279 277 276 276 276 276 276 276 276 276 276 277 277 277 278 278 279 280 282 282 283 284 285 286 287 289 290 292 294 295 295 295 295 295 296 298 298 299 299 299 300 301 303 304
249 250 251 252 254 256 258 259 262 265 266 268 271 272 273 274 275 276 278 278 278 279 279 280 280 281 281 281 282 282 283 283 283 283 283 282 282 282 282 282 281 280 279 277 277 277 276 276 276 276 275 276 276 277 277 277 278 278 279 280 281 282 283 284 285 287 288 289 291 293 293 294 294 294 294 295 297 298 298 298 299 300 301 302 302
246 247 249 250 252 254 257 259 262 264 266 268 271 273 275 276 277 277 278 279 279 280 280 281 282 283 283 284 284 284 284 285 284 283 282 282 281 281 281 281 281 280 279 278 278 278 277 277 276 276 276 276 276 277 277 277 277 278 279 280 280 281 282 284 285 286 287 289 290 292 293 293 294 294 294 295 295 296 297 297 298 299 300 300 301
244 246 247 249 250 253 255 258 261 264 266 267 269 271 274 276 277 278 278 278 279 280 281 282 283 284 285 286 286 286 286 285 284 284 283 283 282 281 281 281 281 280 279 279 280 279 278 278 278 278 278 278 278 278 278 278 278 278 278 279 280 281 282 284 285 285 286 288 290 291 292 293 293 293 294 294 295 295 296 296 297 298 298 299 300
242 245 247 248 250 252 255 257 260 262 264 266 267 269 271 274 277 279 280 280 281 281 282 283 284 284 286 287 288 288 288 286 286 285 285 284 283 283 282 282 282 281 281 281 281 280 279 279 279 279 279 279 280 280 279 279 278 278 279 279 280 281 282 283 284 285 286 289 290 291 291 292 292 292 293 293 294 294 295 295 296 297 297 298 299
242 244 246 248 250 253 255 257 258 260 262 264 266 268 269 272 275 278 280 282 283 283 284 284 285 286 287 288 289 290 289 288 287 286 285 285 285 284 284 284 284 283 283 283 283 282 282 282 281 281 281 281 281 281 281 280 280 280 280 281 281 282 282 283 284 286 287 288 289 290 290 290 291 291 292 292 293 293 294 294 295 296 297 298 298
242 244 246 248 250 253 255 257 258 260 262 264 265 267 269 271 274 276 278 280 282 283 285 286 286 287 289 289 290 290 290 289 288 287 287 286 285 285 286 286 285 285 284 284 284 284 284 284 284 283 283 283 282 282 282 282 282 282 282 282 282 283 284 285 285 286 287 288 289 290 290 290 290 290 291 291 292 293 293 294 295 295 296 297 297
244 245 247 249 251 253 255 256 258 260 262 264 265 267 269 271 274 276 277 279 281 282 284 286 287 288 289 290 290 290 290 289 288 288 287 287 286 286 287 287 286 285 285 285 285 285 285 285 285 284 284 284 284 284 284 284 283 283 283 284 284 285 285 286 286 287 287 288 289 290 290 290 290 290 290 291 292 292 293 293 294 295 295 296 296
245 246 248 250 252 253 255 257 259 261 262 264 266 267 269 271 273 276 278 279 281 282 283 286 287 289 290 291 291 291 290 289 288 288 287 287 287 287 287 287 286 286 285 285 285 285 286 286 285 285 285 284 284 284 284 284 284 284 285 285 285 286 286 286 287 287 288 289 289 290 290 290 290 290 290 291 291 292 293 293 294 294 294 295 296
246 247 249 251 253 254 256 258 260 262 263 265 266 267 269 271 273 275 277 279 280 282 283 285 287 289 290 291 291 291 290 290 289 289 288 288 287 288 288 287 287 286 286 286 286 286 286 286 286 286 285 285 285 284 284 285 285 285 285 286 286 287 287 288 288 288 289 289 290 290 290 290 290 290 290 291 291 292 292 293 293 293 293 294 295
247 248 249 251 254 256 257 259 261 263 264 265 266 267 268 270 272 274 276 278 280 281 283 285 286 288 289 290 291 291 291 291 290 289 289 289 289 289 289 288 288 287 287 287 287 287 287 287 287 287 286 286 286 285 285 285 286 286 286 287 288 288 289 289 289 289 290 290 290 290 291 291 291 291 291 291 291 291 292 292 292 292 293 293 294
248 249 250 252 255 257 258 260 261 263 264 265 266 267 268 270 272 274 276 278 279 281 283 285 286 288 289 290 290 291 291 290 290 289 289 290 290 290 290 289 289 289 289 289 289 289 289 289 288 288 287 287 287 287 287 287 287 287 288 288 289 289 289 290 290 290 290 291 291 291 291 291 291 291 291 290 290 290 291 291 291 291 292 293 293
249 250 252 253 255 257 258 260 261 263 264 265 267 268 269 270 272 274 276 278 280 282 283 285 286 288 289 290 290 290 291 290 290 290 290 290 291 291 291 291 291 291 291 290 290 290 290 290 289 289 288 288 288 288 288 288 288 289 289 289 289 290 290 290 291 291 291 291 292 292 292 292 291 291 290 290 289 290 290 290 291 291 291 292 293
250 252 253 254 255 257 258 260 262 263 264 266 267 268 270 272 273 275 277 279 280 282 284 286 287 288 289 290 290 290 291 291 291 291 291 291 292 293 293 292 292 292 292 291 291 291 291 291 290 289 289 288 288 289 289 289 289 289 289 289 290 290 290 291 291 291 291 292 292 292 292 291 291 290 290 289 289 289 290 290 290 291 291 292 293
251 253 254 255 256 257 258 260 262 264 265 266 268 269 271 273 274 275 277 278 280 282 284 286 287 289 289 289 289 290 291 291 291 291 292 292 293 294 294 293 293 293 293 293 292 292 292 291 290 290 289 289 290 290 290 290 290 290 290 290 290 290 291 291 291 291 291 291 291 291 291 291 291 290 290 289 289 289 289 290 290 290 291 291 292
251 253 254 255 256 257 259 261 262 264 266 267 269 270 271 273 274 275 277 278 280 281 283 285 287 288 289 290 290 290 291 291 291 291 292 293 294 295 295 294 294 294 294 293 293 293 292 292 291 291 291 291 291 291 291 291 291 291 291 291 291 291 291 291 291 291 291 291 291 291 291 290 290 290 290 289 289 289 289 289 289 289 290 290 290
252 253 254 255 256 258 259 261 263 265 266 268 269 270 272 273 274 275 277 278 279 281 282 284 286 288 289 290 290 291 291 291 291 292 293 294 295 295 295 295 295 294 294 294 293 293 292 292 291 291 292 292 292 292 292 292 292 292 292 292 291 291 291 291 291 291 291 291 291 291 290 290 290 290 289 289 289 289 289 289 288 288 289 289 289
252 253 254 255 257 258 260 262 263 264 266 267 269 270 272 273 274 275 277 278 279 281 283 285 286 288 289 289 290 291 291 291 291 292 293 294 294 295 295 295 295 294 294 293 293 292 292 292 292 292 292 292 293 293 292 292 292 292 292 292 292 292 291 291 291 291 291 291 291 290 290 290 289 289 289 289 289 288 288 288 288 287 288 288 288
252 253 254 256 257 259 260 262 263 264 266 267 268 270 272 273 274 276 277 278 280 281 283 285 287 287 288 289 290 290 291 291 291 291 293 294 294 294 294 294 294 294 293 293 293 292 292 292 292 293 293 293 293 293 293 293 292 292 292 292 292 292 292 291 291 291 291 291 291 290 290 290 290 289 289 288 288 288 287 287 287 287 287 287 287
252 253 255 256 257 259 260 262 263 264 266 267 269 270 272 273 275 276 278 279 281 282 284 285 286 287 288 289 289 290 291 291 291 291 292 293 294 294 294 294 294 294 293 293 293 293 293 293 293 293 293 294 294 293 293 293 293 292 292 292 292 292 292 291 291 291 290 290 290 290 290 290 290 289 288 288 287 287 287 286 286 286 286 286 285
253 254 255 256 258 259 260 262 263 264 266 267 269 271 272 274 275 277 278 280 281 282 284 285 286 287 288 288 289 290 290 291 291 291 292 293 294 294 294 294 294 294 294 294 294 294 294 294 294 294 294 294 294 294 294 293 293 293 293 292 292 291 291 291 291 290 290 290 290 290 290 290 289 288 287 287 286 286 286 285 285 285 285 284 284
253 254 255 257 258 259 261 262 263 265 266 268 270 271 273 275 276 278 279 280 281 282 284 285 286 287 288 288 289 289 290 290 291 291 292 293 294 294 294 294 294 294 294 294 294 294 294 294 294 294 294 294 294 294 294 294 293 293 293 292 292 291 291 291 290 290 290 290 290 290 289 289 288 287 287 286 286 286 285 284 284 283 283 283 282
253 255 256 257 259 260 261 263 264 266 268 269 271 272 274 275 277 278 279 281 282 283 285 286 286 287 287 287 288 289 289 290 291 292 293 294 294 294 294 294 294 294 294 294 294 294 295 295 295 295 294 294 294 294 294 294 294 293 293 292 292 291 291 291 290 290 290 289 289 289 288 288 287 286 286 286 285 285 284 283 282 282 281 281 280
254 255 257 258 260 261 263 264 266 267 269 270 272 273 275 276 278 279 280 282 283 284 284 285 285 285 286 287 287 288 290 291 292 292 293 293 293 294 293 294 294 294 294 294 294 295 295 295 295 295 295 295 295 294 294 294 293 293 293 292 292 291 291 291 290 290 289 289 288 287 287 287 286 285 285 284 284 284 283 282 281 281 280 279 278